Theta_e
311 311 311 310 310 310 310 310 310 310 310 310 311 311 311 312 313 314 314 313 313 313 312 312 313 313 310 302 302 313 319 319 320 316 310 303 301 302 301 303 304 302 304 305 307 307 306
311 311 311 311 310 310 310 311 311 313 313 313 313 313 312 312 313 313 312 312 312 313 312 312 313 313 305 294 311 313 311 317 316 312 309 304 302 305 303 304 303 305 305 305 306 307 306
310 310 310 310 310 309 309 310 310 310 311 312 312 313 312 313 313 313 313 312 312 312 312 312 313 310 302 299 311 312 311 309 314 312 306 306 305 304 305 302 305 304 302 303 304 305 306
310 310 310 310 310 309 309 309 309 309 309 309 310 311 310 310 311 312 312 313 312 312 313 313 313 309 297 310 313 310 311 310 311 314 308 308 304 304 304 305 303 300 302 297 304 305 305
309 309 309 309 309 309 309 309 309 308 308 308 308 309 309 309 309 310 311 311 311 312 312 312 307 304 295 313 307 311 312 306 311 312 309 308 305 302 300 298 297 299 292 296 299 305 305
309 309 309 309 308 308 309 308 308 308 308 308 308 308 309 308 308 309 310 309 309 309 309 309 307 299 303 300 307 308 311 309 308 307 303 301 300 297 296 296 288 292 293 296 297 301 304
308 309 308 309 308 308 307 307 307 307 308 308 308 308 307 309 308 309 307 302 297 298 301 296 297 298 300 307 311 307 308 309 306 302 293 296 293 290 293 297 297 296 295 294 298 302 302
308 307 308 308 308 307 308 308 308 308 308 308 309 309 309 309 309 309 305 295 296 301 294 301 301 301 305 307 300 304 309 302 298 292 295 291 290 296 295 296 295 294 294 294 298 302 302
308 307 307 307 307 308 308 309 309 309 309 309 309 309 309 309 309 304 300 298 304 304 293 296 301 299 302 303 299 301 306 303 295 292 292 288 291 295 295 294 293 294 292 293 295 300 302
307 307 306 306 307 308 307 308 309 309 309 309 308 309 309 308 302 301 297 303 306 304 286 291 296 300 302 303 297 306 307 304 300 292 293 290 294 292 293 293 295 291 296 295 294 296 292
307 306 306 306 305 306 308 308 308 309 309 308 308 307 308 308 301 296 300 304 305 301 277 295 296 307 304 299 301 301 307 303 297 297 296 291 291 290 291 293 296 293 297 297 296 294 294
306 306 306 306 307 307 307 307 308 308 307 307 308 308 307 304 303 302 304 304 302 287 279 288 297 296 296 298 301 303 301 304 303 299 299 294 297 293 293 295 297 298 296 296 296 295 288
306 305 306 306 306 306 306 307 307 308 307 307 308 308 303 304 297 303 303 299 287 281 295 287 290 296 295 294 298 297 296 295 294 290 291 294 292 295 296 292 296 297 294 287 286 286 286
306 305 306 305 305 306 306 306 306 307 306 306 306 305 302 304 305 305 301 293 282 289 291 294 293 294 292 297 296 295 294 292 295 295 292 288 285 292 296 293 291 294 294 288 281 283 286
305 305 305 305 304 304 305 305 306 306 305 305 304 302 306 306 306 304 297 288 287 291 294 292 295 291 292 296 295 294 293 293 295 296 291 288 288 296 296 297 297 293 291 296 291 291 288
305 305 305 305 304 304 304 304 306 307 306 305 300 299 303 308 307 301 295 288 292 296 297 293 288 294 291 293 292 292 292 296 295 298 297 294 287 295 296 297 297 296 298 290 292 284 283
305 304 304 305 305 305 304 304 306 306 305 304 300 298 304 309 308 299 288 288 291 297 299 294 290 293 295 292 292 291 291 295 298 298 298 296 293 292 295 294 293 294 292 293 294 293 286
305 304 304 305 306 305 305 305 306 305 305 301 298 291 307 308 295 295 289 291 295 296 300 295 295 297 297 297 292 292 292 296 300 300 295 298 296 289 292 298 299 298 295 296 290 289 293
304 304 304 304 306 305 305 304 305 305 305 298 294 294 305 305 286 287 292 293 295 295 296 295 294 298 301 298 292 295 296 300 301 300 299 300 294 289 291 296 296 295 297 298 299 298 293
304 304 304 304 305 305 305 304 304 305 305 298 294 288 295 297 296 290 289 290 290 297 296 297 298 300 299 298 301 298 297 302 300 301 307 304 296 294 290 293 297 294 295 297 297 295 294
304 304 304 303 304 304 305 306 304 305 305 298 293 289 291 286 289 290 291 290 289 289 295 298 296 296 295 295 297 298 300 300 300 305 301 302 295 298 299 299 300 299 295 296 295 296 293
303 304 303 303 304 304 305 305 305 305 305 297 290 289 291 289 291 290 290 289 289 291 292 293 293 295 297 296 298 297 300 301 299 302 301 302 298 300 297 299 299 297 298 297 297 298 300
303 303 303 303 303 303 304 305 306 305 305 297 297 297 292 290 289 289 289 289 290 292 295 296 295 294 298 300 304 305 307 306 306 303 300 301 300 298 293 298 298 295 298 299 300 301 302
303 303 303 303 303 302 303 304 305 306 305 301 299 295 291 286 288 288 289 291 291 292 292 296 298 297 302 306 310 308 306 305 306 304 303 300 300 299 295 296 287 298 302 303 301 300 302
303 303 303 302 303 303 303 305 305 306 306 302 300 296 291 285 289 289 290 291 293 296 294 294 298 300 303 304 300 296 298 299 301 302 303 302 301 295 293 292 294 297 300 301 301 298 303
303 303 302 302 302 302 303 305 305 306 306 302 300 301 295 288 289 291 290 292 290 291 293 296 300 303 303 302 299 288 290 295 295 297 303 302 302 300 293 290 287 299 303 305 304 296 305
303 303 302 302 302 302 304 305 306 306 306 304 300 301 296 288 293 294 290 290 295 292 291 294 296 297 304 296 293 292 292 298 294 294 295 297 296 295 292 293 294 300 303 305 295 298 306
302 302 301 302 302 302 303 304 305 306 306 305 300 301 297 291 293 295 297 294 295 293 291 295 295 297 297 290 292 294 294 297 297 298 296 296 295 295 294 292 290 304 303 298 303 306 305
302 302 301 301 302 302 302 304 305 306 306 306 298 300 300 293 293 300 300 300 298 297 295 298 295 297 297 293 294 295 295 299 298 293 300 294 299 297 297 297 299 301 303 304 306 302 300
Wind_Speed
19 19 19 19 19 18 19 19 19 18 17 17 17 18 18 18 19 16 14 15 14 14 10 13 14 14 7 9 14 13 20 19 7 20 21 15 18 19 20 16 13 16 14 9 7 1 2
20 19 19 20 19 19 20 20 20 20 20 19 19 19 17 18 18 16 16 15 14 13 12 10 13 13 8 20 8 9 2 5 8 18 19 13 14 14 17 17 18 14 8 12 5 7 0
20 20 20 20 19 20 21 22 22 21 20 20 20 21 21 20 19 19 16 17 15 16 16 13 15 10 13 22 6 5 3 2 4 14 17 11 8 17 12 11 7 8 16 8 9 5 5
20 21 20 20 20 22 22 22 22 22 22 21 21 21 22 22 21 20 21 19 18 20 18 16 14 10 12 8 12 22 19 15 9 13 12 11 4 9 6 7 10 10 13 16 16 12 4
21 20 20 21 21 21 22 22 23 24 24 23 22 21 22 24 23 22 21 20 23 23 20 15 7 7 12 1 13 20 17 9 14 14 8 9 3 9 5 18 15 11 15 22 13 16 8
21 22 22 22 23 23 22 23 24 25 25 25 24 24 22 23 24 22 19 23 24 17 6 6 6 7 10 8 6 5 14 15 13 14 7 9 6 11 8 17 19 24 15 17 18 11 17
22 22 23 24 25 25 25 25 25 26 26 27 27 26 25 22 23 20 16 9 4 4 7 11 12 6 9 8 3 4 15 19 13 12 9 12 10 20 26 21 10 18 18 10 13 6 12
22 22 23 24 25 26 26 25 26 27 27 28 28 27 26 24 24 20 12 5 12 5 8 20 17 23 6 5 2 10 17 11 20 16 11 10 15 14 12 13 9 14 19 14 11 10 11
23 23 23 24 25 25 27 26 26 27 27 28 29 28 27 25 22 14 9 10 5 9 5 9 18 19 10 9 5 8 17 14 20 17 12 15 11 10 14 12 11 10 18 21 12 9 3
22 23 24 25 23 25 29 29 29 29 29 30 30 30 28 23 13 3 5 7 7 3 5 4 5 6 16 4 8 9 16 12 6 17 11 8 9 19 15 13 10 9 9 17 19 12 11
23 24 25 25 26 27 26 29 31 31 32 33 33 35 29 18 3 2 6 4 4 5 5 6 5 8 15 13 12 11 20 5 12 14 5 6 16 20 21 21 11 5 6 13 16 15 9
23 24 24 24 25 26 27 28 31 32 34 36 34 34 21 4 1 4 6 7 2 3 2 7 2 9 13 10 5 16 15 12 7 13 6 5 10 14 12 16 16 6 6 8 6 6 12
22 23 24 25 25 27 28 29 31 32 36 35 35 28 7 4 3 8 5 1 2 3 7 6 4 8 15 10 9 22 19 13 8 12 12 5 10 7 10 20 17 14 14 7 8 8 6
22 23 23 25 26 25 28 30 32 32 36 37 33 16 4 5 5 3 2 2 3 9 8 1 2 5 9 13 19 20 19 13 3 8 11 8 7 13 15 20 12 17 17 6 7 9 9
23 24 25 26 27 28 28 29 32 32 36 36 18 5 6 6 2 0 3 3 6 8 9 8 6 9 6 10 13 20 20 14 8 7 6 6 5 15 19 13 15 19 13 5 5 2 7
22 23 24 25 26 27 28 30 31 34 34 31 4 5 8 5 3 1 2 7 8 12 11 5 3 1 12 14 14 15 17 14 6 11 2 5 9 13 17 14 5 15 15 9 2 8 6
21 22 23 23 24 24 27 30 30 33 34 25 2 3 9 11 2 2 4 4 6 14 11 6 5 4 5 10 20 17 18 13 15 10 6 2 3 10 13 10 13 13 13 5 3 2 7
21 22 23 24 23 24 25 27 30 30 33 8 4 4 8 9 7 4 5 11 8 10 6 6 4 6 4 6 14 9 18 5 20 8 6 1 5 12 17 2 15 12 15 9 9 8 0
20 21 22 22 22 24 25 27 28 31 28 5 3 3 4 6 6 6 9 10 10 12 10 4 5 8 6 2 7 5 12 3 14 14 10 7 3 11 10 7 6 13 8 8 7 3 8
19 21 21 21 21 21 22 27 27 29 29 2 3 6 5 5 3 7 8 10 17 13 9 10 4 6 6 7 7 3 8 5 11 15 6 7 3 4 7 8 8 9 12 13 13 5 6
18 19 20 21 21 21 22 23 27 27 28 2 6 3 2 6 8 13 12 13 13 13 8 11 4 14 11 6 3 5 4 3 6 3 4 1 4 4 5 3 3 7 17 18 17 14 9
17 18 19 20 21 21 21 22 22 23 25 5 4 5 5 6 8 11 11 9 12 12 5 10 9 14 11 5 6 6 4 3 2 3 4 0 4 2 5 4 4 4 9 11 10 8 6
15 16 17 19 19 20 19 20 21 18 15 4 2 2 3 6 9 7 8 11 12 17 7 9 8 8 5 5 10 8 3 3 2 2 4 4 6 3 5 1 7 6 8 10 6 5 5
14 15 16 17 17 18 18 18 18 17 10 2 1 2 3 5 7 6 14 15 14 16 8 12 12 3 6 15 8 4 4 0 2 4 2 8 5 2 5 4 6 4 1 6 5 5 3
13 13 14 15 15 16 17 18 16 15 12 3 3 2 3 6 7 12 13 8 13 9 7 5 8 5 12 7 2 2 1 3 4 6 3 1 6 5 5 3 2 1 5 7 6 4 4
13 13 14 15 15 16 16 17 16 14 13 4 2 1 2 5 2 6 8 9 6 7 5 5 8 9 5 2 1 3 3 3 5 4 4 5 5 4 5 5 7 5 7 3 3 4 11
12 13 14 15 15 15 16 17 17 15 14 2 2 3 2 4 5 2 4 6 4 4 4 4 8 6 3 3 1 2 2 1 6 8 7 5 3 6 5 3 2 2 6 5 7 0 15
11 12 13 14 15 15 15 16 17 17 14 3 4 4 2 4 11 9 5 11 10 4 3 5 5 1 3 2 1 2 3 3 3 3 4 7 7 4 3 3 5 3 5 7 6 14 16
11 11 13 14 15 15 15 16 18 17 14 6 3 3 3 4 8 12 20 23 20 18 4 3 3 3 2 3 2 2 3 2 4 6 2 4 2 6 2 3 4 3 4 1 9 17 13
Wind_Direction
10 6 5 2 359 355 347 349 344 339 335 336 332 327 324 322 320 313 307 307 306 299 293 300 297 291 290 231 242 281 306 306 213 166 187 192 185 189 196 190 178 210 181 186 203 90 101
9 7 4 0 356 352 349 345 341 344 343 335 328 324 322 317 313 312 310 307 302 295 283 285 289 279 253 253 279 260 272 44 164 172 184 202 196 193 194 185 195 184 185 184 187 202 64
6 5 2 359 355 353 350 345 341 339 337 336 334 334 329 323 318 316 308 299 295 287 285 276 277 265 245 239 233 166 272 336 201 185 182 204 191 195 165 164 171 174 198 175 192 175 194
3 2 359 356 354 352 349 345 342 339 336 332 329 327 326 323 320 315 312 311 308 299 288 283 272 264 256 254 249 249 253 274 227 199 197 200 207 201 203 160 162 172 201 202 187 183 185
360 360 357 353 353 349 346 345 341 339 336 332 329 325 321 317 315 315 314 306 298 289 278 265 249 228 264 250 228 243 223 218 177 196 191 195 241 194 153 167 176 188 197 205 182 202 165
357 357 355 352 350 350 345 344 341 337 335 332 328 326 319 316 314 310 307 309 295 286 244 201 235 220 239 239 204 189 174 189 163 176 149 175 187 185 179 185 184 188 193 196 197 183 203
356 354 353 351 350 348 343 341 338 335 331 329 326 322 320 315 311 305 312 323 290 199 207 201 193 215 291 224 159 160 168 163 145 168 157 180 185 188 191 196 205 202 196 188 198 184 183
356 355 351 351 348 346 342 340 336 332 327 324 319 316 315 311 301 303 300 242 242 339 266 232 238 224 239 56 325 152 178 140 165 162 143 159 201 185 155 179 162 179 191 194 179 160 189
355 355 352 350 347 344 342 338 335 331 327 324 319 316 311 305 302 297 230 220 252 1 272 270 221 221 217 201 248 178 187 147 163 163 172 180 177 163 177 178 144 183 194 192 165 161 100
355 353 352 350 346 344 342 338 335 333 330 327 325 321 318 318 293 269 280 283 282 252 282 237 184 234 185 187 220 200 198 140 150 160 154 173 159 172 177 184 173 141 189 180 193 178 190
354 353 352 349 347 345 342 338 335 335 334 336 331 330 326 316 264 232 290 352 5 184 274 82 140 133 154 177 128 189 201 209 143 155 183 134 164 184 184 189 184 141 170 158 183 197 193
355 354 351 348 346 344 342 340 336 336 337 339 335 331 342 12 134 284 275 305 238 260 257 355 279 138 150 208 190 146 191 234 139 154 199 99 174 165 177 173 182 172 128 88 109 149 201
353 354 350 349 349 345 342 341 337 337 340 341 334 331 359 323 18 344 188 258 186 287 311 353 8 159 153 180 151 152 182 182 162 155 186 155 153 164 170 163 178 187 178 152 177 194 194
350 350 349 351 350 348 343 341 338 338 342 340 331 332 357 32 341 52 116 263 357 347 8 161 317 172 173 173 150 161 172 177 177 150 157 162 162 164 173 168 177 180 184 180 178 181 163
350 349 348 349 350 349 348 343 338 340 344 340 335 335 26 5 47 47 296 349 351 351 333 338 86 136 214 135 148 162 178 175 182 171 152 149 131 177 169 168 160 186 199 141 106 86 172
349 349 349 349 349 350 349 348 341 339 345 341 343 321 32 337 327 286 3 340 343 339 350 26 37 256 154 137 143 167 177 199 207 211 253 170 126 183 157 166 160 180 181 193 198 173 176
347 348 351 348 350 350 351 348 345 342 346 337 14 27 353 343 290 16 39 322 298 315 18 359 338 321 117 143 154 161 179 173 213 199 206 127 151 149 160 188 173 156 173 187 176 285 191
345 347 349 351 350 351 350 349 345 346 346 6 344 56 339 329 40 23 355 324 290 310 16 11 303 289 302 74 157 149 184 165 203 165 198 275 123 160 172 123 179 173 181 172 188 190 283
343 344 346 349 348 354 351 354 350 344 355 315 11 324 341 349 38 6 325 346 351 342 349 42 318 349 339 29 145 145 184 199 167 185 180 185 136 143 146 147 155 196 179 172 124 137 208
341 342 343 349 350 356 348 355 355 347 351 18 358 11 344 20 23 347 341 358 358 349 339 344 307 326 355 23 29 123 175 38 181 192 183 135 111 133 156 152 148 177 183 192 190 183 170
337 339 340 347 349 355 350 351 359 353 348 22 13 42 14 338 351 343 3 360 349 358 339 342 11 20 10 18 26 55 31 100 93 122 102 202 117 85 48 113 163 161 183 186 195 214 201
333 336 337 343 343 355 352 350 357 0 345 51 33 345 345 300 317 338 4 349 336 341 300 344 349 340 338 19 16 12 341 40 89 104 121 115 106 110 69 104 142 121 161 180 190 199 236
325 329 335 342 342 348 352 348 349 3 359 23 345 283 283 300 336 351 354 340 324 336 305 321 312 316 317 5 314 293 327 43 53 152 132 150 139 126 134 132 145 122 173 172 152 170 202
318 326 331 336 341 343 344 344 344 352 18 300 313 289 312 299 321 328 313 322 329 329 302 305 318 235 4 321 290 238 265 210 97 81 31 146 116 54 115 170 185 61 305 177 129 106 146
310 321 326 326 335 339 340 337 342 344 353 352 340 316 324 298 309 307 333 319 321 331 332 301 329 302 303 293 224 137 17 165 87 60 130 4 128 106 153 188 69 289 178 167 188 148 141
306 316 319 321 330 335 332 335 334 338 343 351 356 269 278 299 263 322 312 307 314 336 320 308 323 302 279 269 198 161 165 167 160 119 80 84 81 132 172 177 196 192 169 166 182 232 161
296 308 314 319 321 327 326 331 333 336 334 348 269 213 268 274 282 299 293 309 299 329 274 295 333 320 308 342 119 211 201 315 176 170 161 132 84 181 154 150 221 263 142 170 192 96 156
287 300 306 310 312 319 318 322 325 327 329 327 287 183 218 254 280 259 235 273 291 270 297 319 305 238 315 31 289 217 237 216 185 147 180 162 154 166 129 140 202 113 146 199 101 126 136
277 293 300 305 306 312 315 318 318 322 325 343 266 186 183 230 266 289 274 268 253 243 272 260 269 291 325 326 251 297 245 212 190 180 179 197 232 156 232 80 358 340 313 23 146 134 127